Back to catalog

ARIANE 44LP DEB

AliveGTO
NORAD 25542·DEBRIS·🇫🇷 France

Launched Dec 11, 1988 from Guiana Space Centre

Loading…

TLE

StaleSource: Space-Track

Epoch: Sep 11, 2026, 01:46 UTC

1 25542U 88109J   26254.07426027 -.00000053  00000-0  63697-3 0  9994
2 25542   6.6242 149.2007 7147462 225.5564  47.6701  2.33861106240486

Track ARIANE 44LP DEB in real time with AllMySat

Download on the App Store